Location: Brno
(49.2000°N, 16.6330°E)
Time: 02:15:17
(UTC+02:00)

RESURS DK-1 - Visible Passes

Search period start: 26 June 2017 00:00
Search period end: 06 July 2017 00:00
Orbit: 555 x 565 km, 69.9° (Epoch: 25 June)

Date Brightness Start Highest point End Pass type
(mag) Time Alt. Az. Time Alt. Az. Time Alt. Az.
26 Jun 3.5 22:25:33 10° NW 22:29:23 36° WSW 22:33:12 10° S visible
27 Jun 4.0 22:24:21 10° NW 22:27:55 27° WSW 22:31:27 10° SSW visible
28 Jun 4.4 22:23:14 10° WNW 22:26:25 21° WSW 22:29:34 10° SSW visible
29 Jun 4.8 22:22:15 10° WNW 22:24:53 16° WSW 22:27:30 10° SW visible
30 Jun 5.0 22:21:35 10° WNW 22:23:20 12° WSW 22:25:06 10° SW visible
